Weather Roundup
Issued by NWS

Home | Current Version | Previous Version | Graphics & Text | Print | Product List | Glossary Off
Versions: 1 2 3 4 5 6 7 8 9 10 11 12 13 14 15 16 17 18 19 20 21 22 23 24 25 26 27 28 29 30 31 32 33 34 35 36 37 38 39 40 41 42 43 44 45 46 47 48 49 50

000
NZUS93 KARX 290559
HRRWXR

CURRENT HOURLY OBSERVATIONS ACROSS
MUCH OF THE UPPER MISSISSIPPI VALLEY
NATIONAL WEATHER SERVICE LA CROSSE WI
100 AM CDT SAT AUG 29 2015


...SOUTHEAST MINNESOTA...


CITY           SKY/WX    TMP DP  RH WIND       PRES   REMARKS
ROCHESTER      CLOUDY    58  56  93 NE7       30.02R
ROCHESTER/MAYO CLOUDY    58  58 100 NE3       30.02S
WINONA         MOCLDY    59  55  88 CALM      30.02S
AUSTIN         CLOUDY    61  57  88 NE5       29.99S
ALBERT LEA     CLOUDY    59  57  94 NE6       29.99F
DODGE CENTER   CLOUDY    55  55 100 NE5       30.02R FOG
PRESTON        CLOUDY    58  56  95 E8        30.00F
OWATONNA       MOCLDY    55  54  94 NE5       30.02R
FARIBAULT      FAIR      55  54  94 N5        30.04R
$$

...ELSEWHERE IN MINNESOTA...


CITY           SKY/WX    TMP DP  RH WIND       PRES   REMARKS
MINNEAPOLIS    FAIR      60  56  86 NE6       30.04S
INTNL FALLS    MOCLDY    69  65  86 SW7       29.93R
DULUTH         FAIR      62  59  90 SW8       30.02R
RED WING       FAIR      57  55  94 E3        30.03R
REDWOOD FALLS  FAIR      56  55  97 CALM      30.03S
MANKATO        FAIR      55  52  88 N6        30.03R
WORTHINGTON    FAIR      57  54  88 N5        30.03S
FAIRMONT       CLOUDY    59  52  77 CALM      30.00S
$$

...SOUTHWEST WISCONSIN...


CITY           SKY/WX    TMP DP  RH WIND       PRES   REMARKS
LA CROSSE      CLOUDY    60  57  89 E3        30.00S
PRAIRIE DU CHI RAIN      63  61  94 E8        29.98F
BOSCOBEL       LGT RAIN  63  61  93 NE5       30.00F FOG
LONE ROCK      RAIN      62  60  93 E8        30.03F FOG
PLATTEVILLE    CLOUDY    64  64  97 SE12      29.98S
FORT MC COY    NOT AVBL
CAMP DOUGLAS   CLOUDY    57  57 100 E9        30.05R
VIROQUA        CLOUDY    58  58 100 E7        30.02F
WIS DELLS      DRIZZLE   56  55  94 E12       30.06F
$$

...ELSEWHERE IN WISCONSIN...


CITY           SKY/WX    TMP DP  RH WIND       PRES   REMARKS
MILWAUKEE      RAIN      63  61  93 E15       30.07F FOG
MADISON        HVY RAIN  60  58  92 E6        30.05S FOG
GREEN BAY      LGT RAIN  58  56  93 S6        30.11F
EAU CLAIRE     FAIR      55  53  93 NE5       30.06R
BLACK RVR FLS  MOCLDY    56  56 100 CALM      30.04R
MEDFORD        FAIR      54  53  97 CALM      30.09R
WAUSAU         CLOUDY    59  55  87 CALM      30.08R
WIS RAPIDS     LGT RAIN  57  54  89 SE8       30.08S
MARSHFIELD     CLOUDY    57  53  86 NE5       30.08R
RICE LAKE      FAIR      54  53  95 CALM      30.08F
$$

...NORTHEAST IOWA...


CITY           SKY/WX    TMP DP  RH WIND       PRES   REMARKS
DECORAH        CLOUDY    61  61 100 E10G17    29.96F
MASON CITY     CLOUDY    60  59  96 E7        29.98R
CHARLES CITY   CLOUDY    61  61 100 E10       29.96S FOG
OELWEIN        LGT RAIN  64  64 100 CALM      29.96R
$$

...ELSEWHERE IN IOWA...


CITY           SKY/WX    TMP DP  RH WIND       PRES   REMARKS
DES MOINES     CLOUDY    71  67  87 S8        29.90F
IOWA CITY      LGT RAIN  66  66 100 SE7       29.96S
FORT DODGE     CLOUDY    61  57  88 N6        29.97R
$$

...NORTHERN ILLINOIS...


CITY           SKY/WX    TMP DP  RH WIND       PRES   REMARKS
CHICAGO-OHARE  CLOUDY    69  64  84 NE5       30.08S
CHICAGO-MIDWAY MOCLDY    72  58  61 SE7       30.08R
MOLINE         CLOUDY    66  62  87 E8        29.99F
ROCKFORD       RAIN      65  62  90 SE12      30.06F FOG
PEORIA         LGT RAIN  69  61  75 SE3       30.04S
$$

NOTE: "FAIR" INDICATES FEW OR NO CLOUDS BELOW 12,000 FEET WITH NO
SIGNIFICANT WEATHER AND/OR OBSTRUCTIONS TO VISIBILITY. WIND
SPEEDS ARE IN MILES-PER-HOUR.



USA.gov is the U.S. government's official web portal to all federal, state and local government web resources and services.